[[[{"header":{"parameterUnit":"kt","parameterCategory":2,"dx":1,"dy":1,"la1":30.253999710083008,"la2":30.299108505249023,"lo1":-89.0895004272461,"lo2":-89.04439544677734,"nx":28,"ny":28,"refTime":"2022-10-10T21:00:00:Z","depth":0,"parameterNumber":1,"parameterNumberName":"U-component_of_WINDS"},"data":[-8.1075,-8.1322,-8.1399,-8.1718,-8.1841,-8.2073,-8.218,-8.2328,-8.2466,-8.2753,-8.2932,-8.3037,-8.3206,-8.344,-8.364,-8.3682,-8.376,-8.3792,-8.3835,-8.3623,-8.3598,-8.3575,-8.3519,-8.3808,-8.3809,-8.4043,-8.4045,-8.4047,-8.0912,-8.1036,-8.1227,-8.1464,-8.1629,-8.1645,-8.1836,-8.1973,-8.218,-8.2353,-8.2533,-8.2793,-8.3009,-8.3172,-8.3393,-8.3512,-8.3532,-8.3566,-8.3556,-8.3583,-8.3359,-8.3299,-8.3546,-8.3546,-8.3546,-8.3546,-8.3546,-8.3546,-8.0636,-8.0782,-8.0969,-8.1178,-8.1319,-8.1478,-8.1631,-8.1755,-8.1945,-8.2183,-8.224,-8.2477,-8.2665,-8.297,-8.3092,-8.328,-8.3256,-8.3318,-8.3333,-8.3346,-8.3349,-8.2996,-8.3322,-8.3322,-8.3322,-8.3321,-8.3321,0,-8.0457,-8.0511,-8.0699,-8.0911,-8.1068,-8.124,-8.1411,-8.1509,-8.1651,-8.1802,-8.2027,-8.217,-8.2454,-8.2675,-8.29,-8.3016,-8.3046,-8.306,-8.3102,-8.3075,-8.3022,-8.305,-8.2679,-8.3049,-8.3047,-8.3045,-8.3044,-8.3043,-8.0181,-8.0343,-8.0577,-8.0699,-8.0811,-8.1008,-8.1141,-8.1254,-8.139,-8.1619,-8.1744,-8.1967,-8.2151,-8.2501,-8.2645,-8.2858,-8.2875,-8.3007,-8.2907,-8.2875,-8.2874,-8.2861,-8.2878,-8.3022,-8.3025,-8.3027,-8.3029,0,-8.0019,-8.0143,-8.0418,-8.0634,-8.0694,-8.0858,-8.1044,-8.1196,-8.13,-8.1524,-8.1583,-8.1746,-8.1966,-8.209,-8.2367,-8.2425,-8.27,-8.2713,-8.2635,-8.2643,-8.2772,-8.2757,-8.3174,-8.3234,-8.2939,-8.2942,-8.2944,0,-7.983,-8.0039,-8.0212,-8.0365,-8.0602,-8.0709,-8.094,-8.1052,-8.1214,-8.1391,-8.1447,-8.1612,-8.1745,-8.1929,-8.2015,-8.2262,-8.2315,-8.2373,-8.2392,-8.2366,-8.2358,-8.2437,-8.2422,-8.2434,-8.2432,-8.243,-8.2428,0,-7.9559,-7.9898,-8.0148,-8.0245,-8.0496,-8.0612,-8.0722,-8.0904,-8.1034,-8.1223,-8.1308,-8.1521,-8.1637,-8.1802,-8.1909,-8.1836,-8.2215,-8.2137,-8.2274,-8.2271,-8.2348,-8.234,-8.2683,-8.2425,-8.2425,-8.2424,-8.2423,0,-7.9424,-7.9611,-7.9956,-8.0166,-8.025,-8.0416,-8.0631,-8.0802,-8.099,-8.1054,-8.1204,-8.1254,-8.1481,-8.1395,-8.1709,-8.1583,-8.1695,-8.1772,-8.1784,-8.1808,-8.1706,-8.1879,-8.2195,-8.2231,-8.1836,-8.1831,-8.1827,0,-7.9079,-7.946,-7.9553,-7.988,-8.0072,-8.0118,-8.0306,-8.047,-8.0571,-8.075,-8.0863,-8.1067,-8.1028,-8.1109,-8.1249,-8.1372,-8.1537,-8.1355,-8.1611,-8.1619,-8.1555,-8.1849,-8.1863,-8.2113,-8.1766,-8.1773,-8.1777,0,-7.8825,-7.9126,-7.9178,-7.9292,-7.9525,-7.9687,-7.9903,-8.0128,-8.0241,-8.0421,-8.0604,-8.0896,-8.0878,-8.1011,-8.1074,-8.1213,-8.1429,-8.1175,-8.1181,-8.1214,-8.1747,-8.1758,-8.18,-8.1441,-8.1449,-8.1455,-8.1729,0,-7.8588,-7.8795,-7.8941,-7.919,-7.9335,-7.9547,-7.9674,-7.981,-7.9854,-7.9954,-8.0227,-8.0395,-8.0625,-8.0706,-8.0752,-8.1031,-8.1003,-8.0982,-8.0903,-8.1096,-8.1189,-8.1227,-8.0753,-8.0752,-8.075,-8.0749,0,0,-7.8225,-7.8523,-7.8617,-7.8828,-7.8955,-7.8998,-7.9213,-7.9343,-7.9603,-7.969,-7.9648,-8.0082,-8.022,-8.0537,-8.0607,-8.0702,-8.0763,-8.069,-8.1004,-8.1031,-8.1057,-8.1155,-8.1193,-8.0747,-8.0747,-8.0746,-8.0746,0,-7.8163,-7.8301,-7.8511,-7.8649,-7.8856,-7.8951,-7.9002,-7.9215,-7.9288,-7.9556,-7.9587,-7.9767,-8.011,-8.0252,-8.0368,-8.0656,-8.0669,-8.0718,-8.0828,-8.0986,-8.1015,-8.1042,-8.1143,-8.1178,-8.0743,-8.0743,-8.0743,0,-7.7933,-7.8089,-7.8204,-7.8495,-7.863,-7.8828,-7.8777,-7.8988,-7.9136,-7.9173,-7.9437,-7.9547,-7.9748,-8.0031,-8.0164,-8.0129,-8.0576,-8.0458,-8.047,-8.0487,-8.0646,-8.0681,-8.0713,-8.0298,-8.0295,-8.0294,0,0,-7.7862,-7.8055,-7.8256,-7.8491,-7.8574,-7.8718,-7.8836,-7.8892,-7.9069,-7.914,-7.9281,-7.9454,-7.9655,-7.9785,-7.998,-8.0274,-8.0324,-8.0398,-8.0419,-8.0436,-8.0461,-8.0624,-8.066,-8.0286,-8.0286,-8.0285,0,0,-7.7829,-7.807,-7.8082,-7.837,-7.8538,-7.8751,-7.8891,-7.8912,-7.9099,-7.9089,-7.9194,-7.9245,-7.9513,-7.962,-7.95,-7.9954,-7.9874,-7.9906,-7.9873,-7.9902,-7.9922,-7.9889,-7.947,0,0,0,0,0,-7.7829,-7.804,-7.8048,-7.8115,-7.8483,-7.8746,-7.8794,-7.8885,-7.8826,-7.8934,-7.9056,-7.9062,-7.9577,-7.9473,-7.9538,-7.967,-8.0184,-8.0202,-8.0219,-8.0247,-8.0275,-8.0299,0,0,0,0,0,0,-7.7856,-7.7937,-7.8043,-7.8264,-7.8347,-7.8739,-7.8659,-7.869,-7.8816,-7.8813,-7.9038,-7.9069,-7.9152,-7.9445,-7.9503,-7.9627,-7.945,-8.0191,-8.0206,-8.022,-8.0257,-8.028,-8.03,0,0,0,0,0,-7.7878,-7.7944,-7.8509,-7.8262,-7.8334,-7.8505,-7.8652,-7.8677,-7.8776,-7.8964,-7.8995,-7.8833,-7.9153,-7.9208,-7.948,-7.9598,-7.9411,-7.9432,-8.0201,-8.0213,-8.0224,-8.0268,0,0,0,0,0,0,-7.7894,-7.7969,-7.8526,-7.8551,-7.8188,-7.8485,-7.8535,-7.8665,-7.8921,-7.8953,-7.8763,-7.8758,-7.9157,-7.9199,-7.9241,-7.9583,-7.9378,-7.94,-7.9414,-8.021,-8.022,-8.0228,0,0,0,0,0,0,-7.7935,-7.7991,-7.8539,-7.844,-7.8456,-7.8466,-7.851,-7.8754,-7.8924,-7.8706,-7.8709,-7.8758,-7.9094,-7.9193,-7.9226,-7.9604,-7.9354,-7.9375,-7.9389,-7.9398,-8.0218,-8.0225,0,0,0,0,0,0,-7.796,-7.8008,-7.8434,-7.8446,-7.8459,-7.8753,-7.8684,-7.9056,-7.8837,-7.8694,-7.882,-7.8813,-7.9088,-7.9123,-7.9216,-7.9579,-7.9598,-7.9355,-7.9369,-7.9379,-7.9385,0,0,0,0,0,0,0,-7.798,-7.7635,-7.8374,-7.8451,-7.8462,-7.8787,-7.8795,-7.8802,-7.8836,-7.8829,-7.8822,-7.8816,-7.9236,-7.9258,-7.9281,-7.9559,0,0,-7.9353,-7.9363,0,0,0,0,0,0,0,0,-7.7617,-7.7631,-7.8374,-7.838,-7.8385,-7.8789,-7.8794,-7.88,-7.8834,-7.8829,-7.8823,-7.8818,-7.9242,-7.926,-7.9279,0,0,0,0,0,0,0,0,0,0,0,0,0,0,0,-7.8375,-7.8379,0,-7.8789,-7.8794,-7.8799,-7.8834,-7.8829,-7.8825,-7.882,-7.9247,-7.9262,-7.9277,0,0,0,0,0,0,0,0,0,0,0,0,0,0,0,0,0,0,0,0,0,0,0,0,0,0,0,0,0,0,0,0,0,0,0,0,0,0,0,0,0,0,0,0,0,0,0,0,0,0,0,0,0,0,0,0,0,0,0,0,0,0,0,0,0,0,0,0,0]}],[{"header":{"parameterUnit":"kt","parameterCategory":2,"dx":1,"dy":1,"la1":30.253999710083008,"la2":30.299108505249023,"lo1":-89.0895004272461,"lo2":-89.04439544677734,"nx":28,"ny":28,"refTime":"2022-10-10T21:00:00:Z","depth":0,"parameterNumber":2,"parameterNumberName":"V-component_of_WINDS"},"data":[2.5866,2.5963,2.5998,2.613,2.6185,2.6285,2.6333,2.6402,2.6468,2.66,2.6686,2.674,2.6829,2.6949,2.7051,2.7076,2.7118,2.7127,2.7155,2.707,2.7062,2.7054,2.7028,2.7135,2.7135,2.7237,2.7238,2.7238,2.5808,2.5859,2.5937,2.6037,2.6108,2.612,2.6205,2.6266,2.6358,2.6441,2.6525,2.6649,2.6755,2.6844,2.6957,2.7016,2.7033,2.7044,2.7041,2.7056,2.6967,2.6939,2.7029,2.7029,2.7029,2.7029,2.7029,2.7029,2.5711,2.5768,2.5845,2.5931,2.5992,2.6062,2.6126,2.6185,2.6269,2.6379,2.6412,2.6522,2.6618,2.6774,2.6839,2.6933,2.6929,2.6957,2.6964,2.697,2.6972,2.6823,2.6955,2.6955,2.6954,2.6954,2.6954,0,2.5651,2.5675,2.575,2.5837,2.5902,2.5976,2.6051,2.6093,2.6165,2.6232,2.6335,2.6403,2.6541,2.6649,2.6764,2.6827,2.6856,2.6863,2.6883,2.6867,2.684,2.6858,2.6713,2.6859,2.6858,2.6858,2.6857,2.6857,2.5558,2.5618,2.5716,2.5766,2.5813,2.5894,2.5951,2.6008,2.6068,2.6175,2.6229,2.6334,2.6421,2.6591,2.6671,2.6778,2.6794,2.6845,2.6811,2.6794,2.6798,2.6794,2.6803,2.6851,2.6851,2.6852,2.6853,0,2.5503,2.5555,2.5662,2.5754,2.578,2.5845,2.5929,2.5994,2.6045,2.6143,2.617,2.6254,2.6359,2.643,2.6567,2.6603,2.673,2.6741,2.6696,2.6703,2.6758,2.6753,2.692,2.6947,2.6835,2.6836,2.6837,0,2.5445,2.5524,2.5599,2.5658,2.5751,2.5802,2.5896,2.5948,2.6024,2.6101,2.6138,2.6211,2.6289,2.6377,2.6429,2.6545,2.657,2.6605,2.6618,2.6602,2.6598,2.6639,2.6635,2.6642,2.6641,2.664,2.664,0,2.5353,2.5485,2.558,2.562,2.5727,2.5774,2.5823,2.5907,2.5964,2.6051,2.609,2.6191,2.6246,2.6328,2.6392,2.6366,2.6534,2.6512,2.6571,2.6569,2.6604,2.6601,2.673,2.6638,2.6638,2.6638,2.6638,0,2.5314,2.5387,2.5516,2.5607,2.564,2.5706,2.58,2.5871,2.596,2.5992,2.6062,2.6095,2.6197,2.6171,2.6316,2.6264,2.632,2.6362,2.6368,2.6381,2.6349,2.6414,2.6528,2.6544,2.6396,2.6394,2.6393,0,2.5196,2.5338,2.5379,2.5504,2.5578,2.5608,2.5685,2.5758,2.5807,2.5885,2.5944,2.6034,2.6028,2.6066,2.6129,2.6195,2.6264,2.6188,2.6316,2.6319,2.6289,2.6395,2.6393,2.6495,2.6368,2.637,2.6372,0,2.511,2.523,2.5248,2.5295,2.5392,2.5455,2.5542,2.5637,2.5686,2.5765,2.5843,2.5972,2.5974,2.6036,2.6073,2.6135,2.622,2.613,2.6133,2.6146,2.636,2.6358,2.6375,2.6234,2.6237,2.6239,2.6352,0,2.5042,2.5118,2.5169,2.5267,2.5325,2.5405,2.5465,2.552,2.5546,2.5593,2.571,2.579,2.5895,2.5931,2.5958,2.6074,2.6067,2.6067,2.6046,2.6114,2.6154,2.6169,2.5983,2.5982,2.5982,2.5982,0,0,2.4918,2.5025,2.5064,2.5143,2.5194,2.5221,2.5302,2.5358,2.5468,2.5507,2.5495,2.5686,2.5753,2.5889,2.5915,2.5957,2.5987,2.5958,2.6081,2.6091,2.6102,2.6142,2.6157,2.5982,2.5982,2.5982,2.5982,0,2.4903,2.4952,2.5026,2.5082,2.5165,2.5208,2.5227,2.5316,2.5351,2.546,2.5487,2.5565,2.5715,2.5783,2.5837,2.5943,2.5963,2.5971,2.6005,2.6077,2.6087,2.6097,2.6139,2.6153,2.5981,2.5981,2.5981,0,2.4829,2.4889,2.4929,2.5039,2.5095,2.5172,2.5161,2.5242,2.5302,2.5334,2.5442,2.5496,2.5592,2.5709,2.5765,2.5757,2.5937,2.5891,2.5894,2.5902,2.5975,2.5988,2.5999,2.5847,2.5847,2.5846,0,0,2.481,2.4877,2.4959,2.504,2.5073,2.5137,2.5184,2.5211,2.5288,2.5319,2.5386,2.5467,2.5557,2.5614,2.57,2.582,2.5848,2.5871,2.5878,2.5882,2.5893,2.5967,2.598,2.5843,2.5843,2.5843,0,0,2.4802,2.4896,2.4903,2.5003,2.5071,2.5162,2.5213,2.5228,2.5308,2.5306,2.5366,2.5389,2.55,2.5553,2.5506,2.5695,2.5673,2.5686,2.5655,2.5665,2.5671,2.5656,2.5512,0,0,0,0,0,2.4813,2.4883,2.4889,2.4914,2.5055,2.5157,2.5177,2.522,2.5203,2.5243,2.5303,2.5318,2.5541,2.55,2.5529,2.5581,2.5805,2.5812,2.5818,2.5808,2.5817,2.5824,0,0,0,0,0,0,2.4823,2.4853,2.4888,2.4979,2.5011,2.5155,2.5136,2.515,2.52,2.52,2.5305,2.5321,2.5366,2.5489,2.5514,2.5562,2.5503,2.5808,2.5814,2.5819,2.5811,2.5818,2.5824,0,0,0,0,0,2.4832,2.4855,2.5068,2.4979,2.5007,2.5082,2.5133,2.5145,2.5185,2.5276,2.5291,2.5213,2.5366,2.5391,2.5504,2.5549,2.5486,2.5495,2.5812,2.5816,2.582,2.5814,0,0,0,0,0,0,2.4838,2.4871,2.5075,2.5085,2.4953,2.5075,2.5095,2.514,2.5259,2.5274,2.5186,2.5185,2.5367,2.5386,2.5405,2.5542,2.5472,2.5482,2.5488,2.5815,2.5819,2.5822,0,0,0,0,0,0,2.4858,2.4879,2.508,2.5045,2.5052,2.5068,2.5086,2.519,2.526,2.5163,2.5166,2.5184,2.5342,2.5383,2.5398,2.5558,2.5462,2.5471,2.5477,2.5481,2.5818,2.5821,0,0,0,0,0,0,2.4868,2.4886,2.5042,2.5048,2.5054,2.5177,2.5162,2.5307,2.522,2.5158,2.5214,2.5212,2.5339,2.5355,2.5393,2.5547,2.5555,2.5462,2.5468,2.5472,2.5475,0,0,0,0,0,0,0,2.4876,2.4741,2.5011,2.505,2.5056,2.5183,2.5186,2.5189,2.5219,2.5217,2.5215,2.5213,2.541,2.542,2.543,2.5537,0,0,2.5461,2.5465,0,0,0,0,0,0,0,0,2.4734,2.4739,2.5011,2.5013,2.5015,2.5183,2.5186,2.5188,2.5219,2.5217,2.5215,2.5214,2.5413,2.5421,2.5429,0,0,0,0,0,0,0,0,0,0,0,0,0,0,0,2.5011,2.5013,0,2.5184,2.5186,2.5188,2.5219,2.5217,2.5216,2.5214,2.5415,2.5422,2.5428,0,0,0,0,0,0,0,0,0,0,0,0,0,0,0,0,0,0,0,0,0,0,0,0,0,0,0,0,0,0,0,0,0,0,0,0,0,0,0,0,0,0,0,0,0,0,0,0,0,0,0,0,0,0,0,0,0,0,0,0,0,0,0,0,0,0,0,0,0]}]]]